PROFILE

 METAR AND TAF INFORMATION
ADDS - METARS form results

(0554 UTC 19 July 2019)
http://aviationweather.gov/metar/data/
 
LFMN 190530Z 34006KT 9999 FEW013 23/17 Q1015 NOSIG
LFMN 190500Z 33007KT 9999 FEW013 22/17 Q1015 NOSIG
TAF AMD LFMN 190430Z 1904/2009 VRB05KT 9999 FEW020 BECMG 1909/1911 14010KT BECMG 1916/1918 VRB05KT TEMPO 1918/2009 BKN014 

 AIRPORT MAP

 RUNWAY INFORMATION
Runway 04L Runway length 8995 ft Runway width 148 ft
Runway elevation 10 ft Runway displaced threshold 0 ft Runway heading 45
Runway 22R Runway length 8995 ft Runway width 148 ft
Runway elevation 10 ft Runway displaced threshold 575 ft Runway heading 225
Runway 04R Runway length 9712 ft Runway width 148 ft
Runway elevation 10 ft Runway displaced threshold 0 ft Runway heading 45
Runway 22L Runway length 9712 ft Runway width 148 ft
Runway elevation 12 ft Runway displaced threshold 0 ft Runway heading 225

 AIRPORT FREQUENCIES
Type A/D Name NICE APP Frequency 124.175 MHZ
Type ATIS Name NICE ATIS Frequency 129.6 MHZ
Type GND Name NICE GND Frequency 121.775 MHZ
Type TWR Name NICE TWR Frequency 118.7 MHZ

 AIRPORT NEAR NAVIGATION AIDS
Type VOR-DME Name Nice Cote D Azur Frequency 109650 KHZ
Type VOR-DME Name Cagnes Sur Mer Frequency 109200 KHZ
Type NDB Name Nice Frequency 399 KHZ
Type VOR-DME Name Nice Frequency 112400 KHZ